Location: Pinhey's Point
(45.4411°N, 75.9539°W)
Time: 07:17:16
(UTC-05:00)

Iridium 65 - Visible Passes

Search period start: 21 November 2017 00:00
Search period end: 01 December 2017 00:00
Orbit: 776 x 779 km, 86.4° (Epoch: 20 November)

Date Brightness Start Highest point End Pass type
(mag) Time Alt. Az. Time Alt. Az. Time Alt. Az.
21 Nov 8.4 05:16:35 10° ESE 05:19:27 15° ENE 05:22:21 10° NE visible
21 Nov 6.1 17:22:06 10° NNE 17:26:50 33° ENE 17:31:31 10° SE visible
21 Nov 7.2 19:02:54 10° NNW 19:07:29 32° W 19:12:03 10° SW visible
22 Nov 6.1 06:20:51 10° S 06:26:00 65° E 06:31:11 10° N visible
22 Nov 6.2 18:29:01 10° NNW 18:34:08 56° W 18:39:13 10° SSW visible
23 Nov 7.2 05:47:53 10° SSE 05:52:36 36° E 05:57:21 10° NNE visible
23 Nov 5.4 17:55:23 10° N 18:00:39 83° E 18:05:52 10° S visible
23 Nov 8.5 19:38:14 10° NW 19:40:35 13° WNW 19:42:56 10° WSW visible
24 Nov 8.1 05:15:31 10° SE 05:19:20 21° E 05:23:10 10° NNE visible
24 Nov 5.8 17:21:59 10° N 17:27:02 46° E 17:32:02 10° SSE visible
24 Nov 7.8 19:03:24 10° NNW 19:07:25 23° W 19:11:26 10° SW visible
25 Nov 8.6 04:44:20 10° E 04:46:11 12° ENE 04:48:04 10° NE visible
25 Nov 5.6 06:20:51 10° S 06:26:04 90° W 06:31:20 10° N visible
25 Nov 6.4 16:48:53 10° NNE 16:53:18 27° ENE 16:57:41 10° SE visible
25 Nov 6.9 18:29:17 10° NNW 18:34:08 40° W 18:38:57 10° SSW visible
26 Nov 6.5 05:47:35 10° SSE 05:52:36 51° E 05:57:39 10° NNE visible
26 Nov 5.8 17:55:31 10° N 18:00:43 71° W 18:05:55 10° S visible
27 Nov 7.5 05:14:49 10° SE 05:19:16 29° E 05:23:43 10° NNE visible
27 Nov 5.5 17:21:58 10° N 17:27:12 66° E 17:32:22 10° SSE visible
27 Nov 8.3 19:04:07 10° NW 19:07:19 17° WNW 19:10:30 10° WSW visible
28 Nov 8.3 04:42:47 10° ESE 04:46:02 17° ENE 04:49:18 10° NE visible
28 Nov 5.5 06:21:01 10° SSW 06:26:11 64° W 06:31:23 10° N visible
28 Nov 6.1 16:48:41 10° NNE 16:53:32 37° E 16:58:21 10° SSE visible
28 Nov 7.5 18:29:41 10° NNW 18:34:06 28° W 18:38:30 10° SW visible
29 Nov 5.8 05:47:28 10° S 05:52:39 73° E 05:57:52 10° N visible
29 Nov 6.5 17:55:44 10° NNW 18:00:45 50° W 18:05:47 10° SSW visible
30 Nov 6.8 05:14:23 10° SSE 05:19:14 41° E 05:24:06 10° NNE visible
30 Nov 5.6 17:22:03 10° N 17:27:18 88° W 17:32:32 10° S visible
30 Nov 8.6 19:05:28 10° NW 19:07:10 12° WNW 19:08:51 10° W visible
